This is the latest recevied weather packets stored in our database for station/object KD9CCP. If no packets are shown the sender has not sent any weather packets the latest 1 day(s).
| Time | Temp. | Humidity | Pressure | Rain* | Wind** | Luminosity | Snow |
|---|---|---|---|---|---|---|---|
| 1778003238 | 5° C | 55% | 1008.5 hPa | 0 mm | 1.34 m/s, 354° | 119 W/m² | - |
| 1778002935 | 5° C | 59% | 1008.6 hPa | 0 mm | 2.24 m/s, 255° | 87 W/m² | - |
| 1778002631 | 5° C | 58% | 1008.5 hPa | 0 mm | 0.45 m/s, 326° | 77 W/m² | - |
| 1778002328 | 5° C | 54% | 1008.6 hPa | 0 mm | 0.89 m/s, 321° | 75 W/m² | - |
| 1778002025 | 5° C | 55% | 1008.5 hPa | 0 mm | 0.45 m/s, 343° | 95 W/m² | - |
| 1778001722 | 5° C | 58% | 1008.4 hPa | 0 mm | 1.34 m/s, 321° | 92 W/m² | - |
| 1778001421 | 5° C | 55% | 1008.4 hPa | 0 mm | 1.79 m/s, 4° | 87 W/m² | - |
| 1778001119 | 5° C | 55% | 1008.4 hPa | 0 mm | 1.34 m/s, 311° | 211 W/m² | - |
| 1778000815 | 5° C | 60% | 1008.4 hPa | 0 mm | 2.24 m/s, 301° | 117 W/m² | - |
| 1778000512 | 5° C | 57% | 1008.3 hPa | 0 mm | 2.68 m/s, 241° | 72 W/m² | - |
| 1778000212 | 5° C | 61% | 1008.2 hPa | 0 mm | 1.79 m/s, 324° | 108 W/m² | - |
| 1777999908 | 5° C | 61% | 1008.2 hPa | 0 mm | 1.34 m/s, 284° | 88 W/m² | - |
| 1777999604 | 5° C | 60% | 1008.4 hPa | 0 mm | 0.45 m/s, 321° | 58 W/m² | - |
| 1777999302 | 5° C | 60% | 1008 hPa | 0 mm | 2.24 m/s, 321° | 78 W/m² | - |
| 1777999000 | 4.44° C | 62% | 1008.1 hPa | 0 mm | 1.79 m/s, 273° | 120 W/m² | - |
| 1777998698 | 4.44° C | 63% | 1008.1 hPa | 0 mm | 1.34 m/s, 251° | 57 W/m² | - |
| 1777998395 | 4.44° C | 64% | 1008.3 hPa | 0 mm | 0.89 m/s, 4° | 54 W/m² | - |
| 1777998092 | 5° C | 65% | 1008.1 hPa | 0 mm | 2.68 m/s, 245° | 81 W/m² | - |
| 1777997789 | 5° C | 58% | 1008 hPa | 0 mm | 2.24 m/s, 244° | 57 W/m² | - |
| 1777997486 | 5° C | 60% | 1008 hPa | 0 mm | 2.24 m/s, 275° | 60 W/m² | - |
| 1777997184 | 5° C | 67% | 1008 hPa | 0 mm | 1.34 m/s, 339° | 97 W/m² | - |
| 1777996881 | 4.44° C | 63% | 1007.9 hPa | 0 mm | 1.79 m/s, 300° | 354 W/m² | - |
| 1777996577 | 4.44° C | 68% | 1008.1 hPa | 0 mm | 2.24 m/s, 276° | 148 W/m² | - |
| 1777996274 | 3.89° C | 70% | 1007.9 hPa | 0 mm | 1.34 m/s, 298° | 82 W/m² | - |
| 1777995970 | 3.89° C | 70% | 1008 hPa | 0 mm | 2.24 m/s, 274° | 108 W/m² | - |
* Rain latest hour (hover to see other rain measurements)
** Current wind speed in m/s (hover to see current wind gust speed)